West Chicago, IL

7:39 AM CST on February 10, 2016 (GMT -0600)
Du Page

Weather History for KDPA - August, 2014

Change the Weather History Date:

Thursday, August 28, 2014

  Actual Average Record
Temperature  
Mean Temperature 72 °F 71 °F  
Max Temperature 81 °F 81 °F 92 °F (2003)
Min Temperature 63 °F 60 °F 54 °F (2003)
Degree Days  
Heating Degree Days 0 0  
Month to date heating degree days 0 0  
Since 1 June heating degree days 27 38  
Since 1 July heating degree days 9 2  
Cooling Degree Days 7 6  
Month to date cooling degree days 223 205  
Year to date cooling degree days 653 707  
Since 1 June cooling degree days 584 661  
Growing Degree Days 22 (Base 50)    
Moisture  
Dew Point 59 °F    
Average Humidity 70    
Maximum Humidity 90    
Minimum Humidity 42    
Precipitation  
Precipitation 0.09 in 0.12 in 1.68 in (2004)
Month to date precipitation 5.67 4.25  
Year to date precipitation 22.43 25.28  
Sea Level Pressure  
Sea Level Pressure 30.08 in    
Wind  
Wind Speed 6 mph (East)    
Max Wind Speed 15 mph    
Max Gust Speed 18 mph    
Visibility 9 miles    
Events Rain    
T = Trace of Precipitation, MM = Missing Value Source: NWS Daily Summary

Daily Weather History Graph

Daily Weather History Graph

Search for Another Location

Airport or City:

Trip Planner

Search our weather history database for the weather conditions in past years. The results will help you decide how hot, cold, wet, or windy it might be!

Date:

Astronomy

Aug. 28, 2014 Rise Set
Actual Time 6:14 AM CDT 7:33 PM CDT
Civil Twilight 5:45 AM CDT 8:01 PM CDT
Nautical Twilight 5:10 AM CDT 8:36 PM CDT
Astronomical Twilight 4:34 AM CDT 9:13 PM CDT
Moon 9:10 AM CDT (8/28) 8:53 PM CDT (8/28)
Length of Visible Light 14h 16m
Length of Day
13h 18m
Waxing Crescent, 9% of the Moon is Illuminated
Aug 28
Waxing Crescent
Sep 2
First Quarter
Sep 8
Full
Sep 15
Last Quarter
Sep 24
New

Hourly Weather History & Observations

Time (CDT) Temp. Heat Index Dew Point Humidity Pressure Visibility Wind Dir Wind Speed Gust Speed Precip Events Conditions
12:52 AM 63.0 °F - 60.1 °F 90% 30.13 in 10.0 mi NNE 3.5 mph - N/A   Clear
1:52 AM 64.9 °F - 61.0 °F 87% 30.13 in 10.0 mi Calm Calm - N/A   Overcast
2:52 AM 64.0 °F - 61.0 °F 90% 30.12 in 10.0 mi NNE 5.8 mph - N/A   Overcast
3:52 AM 64.9 °F - 61.0 °F 87% 30.11 in 10.0 mi NE 3.5 mph - N/A   Overcast
4:52 AM 64.9 °F - 59.0 °F 81% 30.11 in 10.0 mi East 4.6 mph - N/A   Clear
5:52 AM 64.9 °F - 59.0 °F 81% 30.12 in 10.0 mi East 4.6 mph - N/A   Mostly Cloudy
6:52 AM 66.0 °F - 59.0 °F 78% 30.13 in 10.0 mi Calm Calm - N/A   Overcast
8:52 AM 70.0 °F - 57.0 °F 63% 30.12 in 10.0 mi East 9.2 mph - N/A   Clear
10:52 AM 75.0 °F - 55.0 °F 50% 30.12 in 10.0 mi East 8.1 mph - N/A   Clear
11:52 AM 75.9 °F - 55.0 °F 48% 30.11 in 10.0 mi East 8.1 mph - N/A   Clear
12:52 PM 78.1 °F - 54.0 °F 43% 30.09 in 10.0 mi East 8.1 mph - N/A   Clear
1:52 PM 79.0 °F - 55.0 °F 44% 30.07 in 10.0 mi SE 6.9 mph - N/A   Clear
2:52 PM 80.1 °F 80.1 °F 55.0 °F 42% 30.05 in 10.0 mi East 5.8 mph - N/A   Clear
3:52 PM 79.0 °F - 57.0 °F 47% 30.04 in 10.0 mi East 9.2 mph - N/A   Clear
4:52 PM 75.0 °F - 57.0 °F 53% 30.04 in 10.0 mi ENE 12.7 mph - N/A   Clear
5:52 PM 73.0 °F - 59.0 °F 61% 30.05 in 10.0 mi ENE 10.4 mph - N/A   Mostly Cloudy
6:52 PM 70.0 °F - 60.1 °F 71% 30.04 in 10.0 mi ENE 8.1 mph - 0.00 in Rain Light Rain
7:52 PM 69.1 °F - 61.0 °F 75% 30.04 in 10.0 mi East 4.6 mph - 0.00 in   Partly Cloudy
8:52 PM 68.0 °F - 62.1 °F 81% 30.04 in 8.0 mi ESE 5.8 mph - 0.01 in Rain Light Rain
9:52 PM 66.9 °F - 64.0 °F 90% 30.03 in 7.0 mi East 6.9 mph - 0.08 in Rain Light Rain
10:52 PM 68.0 °F - 64.9 °F 90% 30.03 in 5.0 mi ESE 4.6 mph - 0.00 in   Clear
11:52 PM 69.1 °F - 64.9 °F 87% 30.01 in 6.0 mi SE 5.8 mph - N/A   Clear